Volver al catálogo

SL-12 DEB

LostHEO
NORAD 29312·DEBRIS·🇷🇺 Russia

Lanzado May 31, 1989 desde Baikonur Cosmodrome

Loading…

Próximos Pases (próximas 24 horas)

TLE

ObsoletoSource: Space-Track

Época: Jul 28, 2024, 06:05 UTC

1 29312U 89039T   24210.25397125  .00000017  00000-0  00000+0 0  9996
2 29312  60.2594 170.7519 4014629 207.7302 123.5201  5.05842086328951

Sigue SL-12 DEB en tiempo real con AllMySat

Download on the App Store